TimeAKDT,TemperatureF,Dew PointF,Humidity,Sea Level PressureIn,VisibilityMPH,Wind Direction,Wind SpeedMPH,Gust SpeedMPH,PrecipitationIn,Events,Conditions,WindDirDegrees,DateUTC
12:53 AM,27.0,21.9,81,29.55,10.0,ENE,6.9,-,N/A,,Overcast,70,2013-09-23 08:53:00
1:32 AM,26.6,21.2,80,29.55,10.0,ENE,6.9,-,N/A,,Overcast,70,2013-09-23 09:32:00
1:53 AM,27.0,21.9,81,29.55,10.0,East,6.9,-,N/A,,Overcast,80,2013-09-23 09:53:00
2:53 AM,27.0,21.9,81,29.55,10.0,East,5.8,-,N/A,,Overcast,90,2013-09-23 10:53:00
3:53 AM,27.0,23.0,85,29.56,5.0,East,6.9,-,0.00,Snow,Light Snow,100,2013-09-23 11:53:00
4:01 AM,26.6,23.0,86,29.55,1.8,East,8.1,-,0.01,Snow,Light Snow,100,2013-09-23 12:01:00
4:53 AM,27.0,23.0,85,29.56,1.0,East,5.8,-,0.03,Snow,Light Snow,100,2013-09-23 12:53:00
5:02 AM,26.6,24.8,93,29.55,1.2,East,5.8,-,0.00,Snow,Light Snow,90,2013-09-23 13:02:00
5:22 AM,26.6,24.8,93,29.55,2.5,East,5.8,-,0.01,Snow,Light Snow,80,2013-09-23 13:22:00
5:30 AM,26.6,24.8,93,29.55,4.0,East,5.8,-,0.01,Snow,Light Snow,90,2013-09-23 13:30:00
5:43 AM,26.6,24.8,93,29.55,2.5,East,5.8,-,0.01,Snow,Light Snow,80,2013-09-23 13:43:00
5:53 AM,27.0,24.1,89,29.55,2.0,East,5.8,-,0.02,Snow,Light Snow,80,2013-09-23 13:53:00
6:02 AM,26.6,24.8,93,29.55,1.5,East,5.8,-,0.00,Snow,Light Snow,80,2013-09-23 14:02:00
6:30 AM,26.6,24.8,93,29.55,1.5,SSE,12.7,-,0.01,Snow,Light Snow,160,2013-09-23 14:30:00
6:53 AM,26.1,23.0,88,29.55,1.2,SSE,9.2,-,0.02,Snow,Light Snow,160,2013-09-23 14:53:00
7:09 AM,26.6,23.0,86,29.55,2.5,SSE,10.4,-,0.00,Snow,Light Snow,160,2013-09-23 15:09:00
7:16 AM,26.6,23.0,86,29.55,1.5,SSE,9.2,-,0.00,Snow,Light Snow,160,2013-09-23 15:16:00
7:29 AM,26.6,23.0,86,29.55,4.0,SSE,9.2,-,0.00,Snow,Light Snow,160,2013-09-23 15:29:00
7:53 AM,25.0,21.9,88,29.56,7.0,SSE,9.2,-,0.00,Snow,Light Snow,150,2013-09-23 15:53:00
8:44 AM,15.8,12.2,86,29.55,1.8,SE,9.2,-,0.00,,Scattered Clouds,140,2013-09-23 16:44:00
8:49 AM,15.8,12.2,86,29.55,0.5,SE,9.2,-,0.00,Fog,Light Freezing Fog,140,2013-09-23 16:49:00
8:53 AM,14.0,12.0,92,29.56,0.5,SE,9.2,-,0.00,Fog,Light Freezing Fog,140,2013-09-23 16:53:00
9:35 AM,12.2,10.4,92,29.55,0.5,SE,10.4,-,N/A,Fog,Light Freezing Fog,140,2013-09-23 17:35:00
9:53 AM,14.0,10.9,88,29.56,0.5,SE,10.4,-,N/A,Fog,Light Freezing Fog,140,2013-09-23 17:53:00
10:03 AM,17.6,14.0,86,29.55,0.5,SE,9.2,-,N/A,Fog,Light Freezing Fog,140,2013-09-23 18:03:00
10:12 AM,19.4,15.8,86,29.55,0.5,SE,9.2,-,N/A,Fog,Light Freezing Fog,140,2013-09-23 18:12:00
10:15 AM,19.4,17.6,93,29.55,1.0,SE,9.2,-,N/A,,Mostly Cloudy,130,2013-09-23 18:15:00
10:25 AM,19.4,17.6,93,29.55,4.0,SE,8.1,-,N/A,,Mostly Cloudy,130,2013-09-23 18:25:00
10:53 AM,21.9,19.0,89,29.56,10.0,ESE,8.1,-,N/A,,Mostly Cloudy,120,2013-09-23 18:53:00
11:29 AM,24.8,21.2,86,29.56,10.0,SE,13.8,-,N/A,,Overcast,140,2013-09-23 19:29:00
11:53 AM,21.0,18.0,88,29.57,8.0,SE,11.5,-,N/A,,Mostly Cloudy,140,2013-09-23 19:53:00
12:02 PM,19.4,17.6,93,29.56,3.0,SE,12.7,-,N/A,,Mostly Cloudy,130,2013-09-23 20:02:00
12:13 PM,19.4,17.6,93,29.56,0.2,SE,11.5,-,N/A,Fog,Light Freezing Fog,140,2013-09-23 20:13:00
12:25 PM,19.4,17.6,93,29.56,1.8,SE,12.7,-,N/A,,Scattered Clouds,140,2013-09-23 20:25:00
12:35 PM,19.4,17.6,93,29.57,7.0,SSE,11.5,-,N/A,Fog,Patches of Fog,150,2013-09-23 20:35:00
12:53 PM,19.0,15.1,85,29.57,10.0,SSE,15.0,-,N/A,,Scattered Clouds,150,2013-09-23 20:53:00
1:53 PM,18.0,14.0,84,29.58,10.0,SSE,13.8,-,N/A,,Scattered Clouds,160,2013-09-23 21:53:00
2:45 PM,19.4,14.0,80,29.59,10.0,South,13.8,-,N/A,,Mostly Cloudy,170,2013-09-23 22:45:00
2:53 PM,19.0,15.1,85,29.60,10.0,South,13.8,-,N/A,,Mostly Cloudy,170,2013-09-23 22:53:00
3:15 PM,19.4,15.8,86,29.60,10.0,South,11.5,-,N/A,,Scattered Clouds,180,2013-09-23 23:15:00
3:53 PM,19.9,17.1,89,29.62,7.0,South,12.7,-,N/A,Fog,Patches of Fog,190,2013-09-23 23:53:00
4:53 PM,19.9,16.0,85,29.64,10.0,South,8.1,-,N/A,,Partly Cloudy,180,2013-09-24 00:53:00
5:53 PM,21.0,17.1,85,29.66,10.0,South,11.5,-,N/A,,Scattered Clouds,180,2013-09-24 01:53:00
6:05 PM,21.2,17.6,86,29.65,10.0,South,10.4,-,N/A,,Mostly Cloudy,180,2013-09-24 02:05:00
6:53 PM,25.0,21.0,85,29.67,10.0,South,11.5,-,N/A,,Overcast,190,2013-09-24 02:53:00
7:36 PM,26.6,23.0,86,29.68,10.0,South,10.4,-,N/A,,Overcast,190,2013-09-24 03:36:00
7:53 PM,26.1,21.9,84,29.68,10.0,South,9.2,-,N/A,,Overcast,190,2013-09-24 03:53:00
8:48 PM,19.4,17.6,93,29.69,10.0,South,9.2,-,N/A,,Partly Cloudy,190,2013-09-24 04:48:00
8:53 PM,19.9,16.0,85,29.70,10.0,South,9.2,-,N/A,,Partly Cloudy,190,2013-09-24 04:53:00
9:23 PM,21.2,19.4,93,29.70,10.0,SSW,11.5,-,N/A,,Mostly Cloudy,200,2013-09-24 05:23:00
9:53 PM,21.9,19.0,89,29.72,10.0,SSW,10.4,-,N/A,,Mostly Cloudy,200,2013-09-24 05:53:00
10:25 PM,19.4,17.6,93,29.72,10.0,South,9.2,-,N/A,,Mostly Cloudy,190,2013-09-24 06:25:00
10:40 PM,17.6,14.0,86,29.73,10.0,South,9.2,-,N/A,,Scattered Clouds,180,2013-09-24 06:40:00
10:53 PM,17.1,12.9,84,29.73,10.0,South,11.5,-,N/A,,Scattered Clouds,180,2013-09-24 06:53:00
11:53 PM,15.1,10.9,84,29.74,10.0,South,10.4,-,N/A,,Clear,180,2013-09-24 07:53:00